Tiempo atmosférico en la estación meteorológica de Valverde, Santa Cruz de Tenerife (1070 m.)



Fecha
DESCASC
Temp. máxima en grados centígrados (hora)
DESCASC
Temp. mínima en grados centígrados (hora)
DESCASC
Temp. media en grados centígrados
DESCASC
Racha de viento máxima en m/sg (hora)
DESCASC
Velocidad máxima media en intervalos de 10 minutos(hora)
DESCASC
Precipitaciones diarias en mm
DESCASC
Precipitaciones de 00:00 a 06:00 en mm
DESCASC
Precipitaciones de 06:00 a 12:00 en mm
DESCASC
Precipitaciones de 12:00 a 18:00 en mm
DESCASC
Precipitaciones de 18:00 a 24:00 en mm
DESCASC
25-02-2021 13.4 (08:40) 10.6 (23:20) 12 13.61 (10:00) 8.06 (22:40) 0 0 0 0 0
24-02-2021 15.5 (13:40) 11.6 (05:50) 13.6 12.22 (21:10) 8.33 (19:20) 0 0 0 0 0
23-02-2021 15.5 (10:50) 11.5 (06:20) 13.5 11.39 (21:20) 8.06 (21:10) 0 0 0 0 0
22-02-2021 16.6 (16:10) 10.8 (02:50) 13.7 7.78 (06:00) 5.28 (02:20) 0 0 0 0 0
21-02-2021 14.3 (16:10) 11.2 (00:00) 12.8 18.33 (04:20) 12.5 (03:00) 0.4 0.4 0 0 0
20-02-2021 18.8 (11:50) 11.3 (00:00) 15 20.83 (20:00) 13.61 (20:10) 3.6 0 0 0 3.6
19-02-2021 16.6 (14:10) 9.5 (00:00) 13.1 8.61 (22:50) 5.83 (23:20) 0 0 0 0 0
18-02-2021 14.3 (13:10) 9.7 (00:00) 12 9.72 (03:50) 6.11 (01:20) 0 0 0 0 0
17-02-2021 16.8 (15:10) 11.3 (00:00) 14 12.78 (10:40) 8.61 (07:50) 0 0 0 0 0
16-02-2021 17.9 (02:00) 12.3 (00:00) 15.1 16.11 (15:20) 13.33 (15:20) 0 0 0 0 0
15-02-2021 18.4 (12:00) 10.8 (00:00) 14.6 11.67 (10:50) 8.61 (15:10) 0 0 0 0 0
14-02-2021 15.1 (14:00) 11.1 (00:00) 13.1 9.44 (03:50) 7.5 (03:30) 0 0 0 0 0
13-02-2021 14.4 (12:30) 11.9 (00:00) 13.1 10.28 (08:00) 7.5 (08:10) 0.2 0 0.2 0 0
12-02-2021 14.3 (13:40) 12.1 (00:00) 13.2 8.89 (19:00) 6.39 (19:00) 0.4 0 0.4 0 0
11-02-2021 15.3 (13:40) 10.8 (00:00) 13.1 8.06 (22:10) 5.28 (23:10) 0.2 0 0.2 0 0
10-02-2021 16.6 (12:50) 10.5 (00:00) 13.6 6.67 (23:10) 5 (23:59) 0.4 0 0 0 0.4
09-02-2021 15.9 (13:40) 9.7 (00:00) 12.8 10 (00:30) 7.22 (00:40) 0 0 0 0 0
08-02-2021 14 (16:50) 11 (00:00) 12.5 11.39 (23:10) 9.72 (23:10) 0 0 0 0 0
07-02-2021 13.4 (15:00) 10.5 (00:00) 11.9 10.28 (05:00) 7.5 (03:30) 0.2 0.2 0 0 0
06-02-2021 12.2 (13:30) 10 (00:00) 11.1 17.22 (07:10) 10.56 (12:10) 0 0 0 0 0
05-02-2021 10.3 (23:00) 7.2 (00:00) 8.8 22.5 (12:10) 13.33 (10:30) 16.6 5.8 4.4 4 2.4
04-02-2021 12.4 (00:50) 8.3 (00:00) 10.3 17.78 (13:00) 12.5 (09:20) 41.2 33.2 4.2 1.6 2.2
03-02-2021 14.3 (13:20) 10.9 (00:00) 12.6 13.33 (20:10) 9.17 (22:00) 0.2 0 0 0 0.2
02-02-2021 18.5 (12:50) 10.8 (23:50) 14.7 11.94 (20:10) 9.44 (20:30) 0 0 0 0 0
01-02-2021 16.9 (14:50) 12.8 (00:00) 14.8 10.56 (19:00) 6.94 (18:10) 0.2 0.2 0 0 0
31-01-2021 14.7 (15:10) 12 (00:00) 13.3 10 (00:30) 7.22 (00:30) 0.2 0 0.2 0 0
30-01-2021 19.6 (04:00) 12.2 (00:00) 15.9 10.83 (01:00) 8.33 (00:50) 0 0 0 0 0

Gráficas

Temp. máximas Temp. mínimas Temp. medias Precipitaciones Rachas de viento máximas Velocidades máximas media en intervalos de 10 minutos

Datos horarios

Fecha y hora oficial Temperatura (ºC) Velocidad del viento (km/h) Dirección del viento Racha (km/h) Dirección de racha Precipitación (mm) Presión (hPa) Tendencia (hPa) Humedad (%)
2021-02-28 23:00:00 8.4 11 Noroeste 27 Nordeste 0 -- -- 99
2021-02-28 22:00:00 8.1 10 Noroeste 23 Noroeste 0 -- -- 98
2021-02-28 21:00:00 8.2 14 Noroeste 28 Noroeste 0 -- -- 96
2021-02-28 20:00:00 8.5 10 Noroeste 27 Noroeste 0 -- -- 97
2021-02-28 19:00:00 8.6 13 Noroeste 21 Noroeste 0 -- -- 96
2021-02-28 18:00:00 8.9 12 Noroeste 22 Noroeste 0 -- -- 91
2021-02-28 17:00:00 11 13 Noroeste 30 Noroeste 0 -- -- 83
2021-02-28 16:00:00 10.4 19 Noroeste 33 Noroeste 0 -- -- 86
2021-02-28 15:00:00 10.2 18 Noroeste 32 Noroeste 0.2 -- -- 87
2021-02-28 14:00:00 11.4 5 Norte 21 Noroeste 0 -- -- 87
2021-02-28 13:00:00 9.8 9 Noroeste 28 Noroeste 0 -- -- 91
2021-02-28 12:00:00 9.5 14 Noroeste 31 Noroeste 0 -- -- 94
2021-02-28 11:00:00 9.1 18 Noroeste 29 Noroeste 0 -- -- 91
2021-02-28 10:00:00 8.8 18 Noroeste 30 Oeste 0 -- -- 95
2021-02-28 09:00:00 8.6 20 Noroeste 40 Noroeste 0 -- -- 96
2021-02-28 08:00:00 7.6 23 Noroeste 39 Noroeste 0 -- -- 96
2021-02-28 07:00:00 6.7 24 Oeste 36 Oeste 0 -- -- 98
2021-02-28 06:00:00 6 18 Noroeste 29 Noroeste 0 -- -- 98
2021-02-28 05:00:00 6.2 21 Noroeste 29 Noroeste 0 -- -- 97
2021-02-28 04:00:00 6.2 14 Noroeste 26 Noroeste 0 -- -- 99
2021-02-28 03:00:00 6.6 20 Noroeste 35 Noroeste 0 -- -- 99
2021-02-28 02:00:00 6.5 20 Noroeste 36 Noroeste 0 -- -- 96
2021-02-28 01:00:00 6.7 17 Noroeste 33 Noroeste 0 -- -- 99
2021-02-28 00:00:00 6.6 18 Noroeste 33 Noroeste 0 -- -- 98
2021-02-27 23:00:00 6.5 22 Noroeste 32 Oeste 0 -- -- 99
2021-02-27 22:00:00 6.4 22 Noroeste 40 Noroeste 0 -- -- 100
2021-02-27 21:00:00 6.9 17 Noroeste 35 Noroeste 0.4 -- -- 100
2021-02-27 20:00:00 6.8 14 Noroeste 34 Noroeste 1.6 -- -- 100
2021-02-27 19:00:00 7.1 19 Noroeste 28 Noroeste 0.8 -- -- 99
2021-02-27 18:00:00 6.9 19 Noroeste 32 Noroeste 0.8 -- -- 98
2021-02-27 17:00:00 7 13 Noroeste 33 Noroeste 0.2 -- -- 99
2021-02-27 16:00:00 7.7 17 Noroeste 34 Noroeste 0 -- -- 97
2021-02-27 15:00:00 8.2 19 Noroeste 36 Noroeste 0 -- -- 92
2021-02-27 14:00:00 8.5 15 Noroeste 34 Noroeste 0 -- -- 86
2021-02-27 13:00:00 8.4 24 Noroeste 35 Noroeste 0 -- -- 88
2021-02-27 12:00:00 8.5 9 Sudeste 28 Nordeste 0 -- -- 89
2021-02-27 11:00:00 8 10 Nordeste 28 Nordeste 0 -- -- 95
2021-02-27 10:00:00 7.3 8 Nordeste 31 Noroeste 0 -- -- 97
2021-02-27 09:00:00 7.1 11 Oeste 33 Noroeste 0 -- -- 97
2021-02-27 08:00:00 6.6 17 Noroeste 28 Noroeste 0 -- -- 92
2021-02-27 07:00:00 6.2 6 Oeste 26 Norte 0 -- -- 90
2021-02-27 06:00:00 6.3 11 Nordeste 32 Nordeste 0 -- -- 91
2021-02-27 05:00:00 6.1 5 Sudoeste 28 Noroeste 0 -- -- 96
2021-02-27 04:00:00 6.7 13 Nordeste 33 Nordeste 0 -- -- 97
2021-02-27 03:00:00 7.2 8 Este 30 Nordeste 0 -- -- 99
2021-02-27 02:00:00 7.1 12 Nordeste 33 Nordeste 0 -- -- 99
2021-02-27 01:00:00 7.5 13 Nordeste 33 Nordeste 0 -- -- 99
2021-02-27 00:00:00 7.4 12 Nordeste 32 Norte 0 -- -- 97
2021-02-26 23:00:00 7.2 10 Nordeste 38 Nordeste 0 -- -- 93
2021-02-26 22:00:00 7.5 13 Nordeste 30 Nordeste 0 -- -- 96
2021-02-26 21:00:00 7.2 12 Nordeste 27 Nordeste 0 -- -- 90
2021-02-26 20:00:00 7.5 8 Nordeste 37 Nordeste 0 -- -- 96
2021-02-26 19:00:00 7.6 13 Nordeste 36 Nordeste 0 -- -- 93
2021-02-26 18:00:00 8.1 12 Nordeste 35 Noroeste 0 -- -- 92
2021-02-26 17:00:00 8.7 21 Noroeste 46 Oeste 0 -- -- 85
2021-02-26 16:00:00 9.7 9 Sudeste 32 Nordeste 0 -- -- 81
2021-02-26 15:00:00 9.4 13 Nordeste 31 Nordeste 0 -- -- 83
2021-02-26 14:00:00 9.6 15 Nordeste 40 Nordeste 0 -- -- 86
2021-02-26 13:00:00 9.4 21 Nordeste 42 Nordeste 0 -- -- 75
2021-02-26 12:00:00 9.2 18 Nordeste 36 Nordeste 0 -- -- 86
2021-02-26 11:00:00 8.6 17 Nordeste 45 Nordeste 0 -- -- 91
2021-02-26 10:00:00 8 20 Nordeste 45 Nordeste 0 -- -- 99
2021-02-26 09:00:00 8.1 20 Norte 39 Nordeste 0 -- -- 91
2021-02-26 08:00:00 7.1 14 Nordeste 37 Norte 0 -- -- 95
2021-02-26 07:00:00 7.3 17 Nordeste 39 Nordeste 0 -- -- 98
2021-02-26 06:00:00 6.7 16 Nordeste 40 Nordeste 0.2 -- -- 94
2021-02-26 05:00:00 6.7 15 Nordeste 38 Norte 0 -- -- 96
2021-02-26 04:00:00 6.7 18 Nordeste 40 Nordeste 0 -- -- 99
2021-02-26 03:00:00 6.6 17 Nordeste 38 Nordeste 0 -- -- 100
2021-02-26 02:00:00 6.4 16 Nordeste 36 Nordeste 0 -- -- 100
2021-02-26 01:00:00 6.7 16 Norte 32 Norte 0 -- -- 100
2021-02-26 00:00:00 7 11 Nordeste 38 Nordeste 0 -- -- 100
2021-02-25 23:00:00 7.4 16 Nordeste 41 Norte 0 -- -- 100
2021-02-25 22:00:00 7.8 19 Nordeste 39 Nordeste 0 -- -- 100
2021-02-25 21:00:00 8.2 15 Nordeste 34 Nordeste 0 -- -- 100
2021-02-25 20:00:00 8.7 10 Norte 30 Nordeste 0 -- -- 100
2021-02-25 19:00:00 9.2 10 Nordeste 24 Nordeste 0 -- -- 100
2021-02-25 18:00:00 9.6 14 Nordeste 33 Nordeste 0 -- -- 100
2021-02-25 17:00:00 9.8 16 Nordeste 32 Norte 0 -- -- 100
2021-02-25 16:00:00 9.8 17 Nordeste 42 Nordeste 0 -- -- 100
2021-02-25 15:00:00 9.9 19 Nordeste 38 Nordeste 0 -- -- 100
2021-02-25 14:00:00 10.2 18 Nordeste 45 Nordeste 0 -- -- 100
2021-02-25 13:00:00 10.4 20 Nordeste 41 Nordeste 0 -- -- 100
2021-02-25 12:00:00 10.7 19 Nordeste 46 Nordeste 0 -- -- 100
2021-02-25 11:00:00 10.3 24 Nordeste 46 Nordeste 0 -- -- 100
2021-02-25 10:00:00 10.6 23 Nordeste 42 Nordeste 0 -- -- 100
2021-02-25 09:00:00 10.1 26 Nordeste 50 Nordeste 0 -- -- 100
2021-02-25 08:00:00 9.9 26 Nordeste 50 Nordeste 0 -- -- 100
2021-02-25 07:00:00 10 17 Nordeste 44 Nordeste 0 -- -- 100
2021-02-25 06:00:00 10.1 17 Nordeste 40 Norte 0 -- -- 100
2021-02-25 05:00:00 10 15 Nordeste 39 Nordeste 0 -- -- 100
2021-02-25 04:00:00 9.9 19 Norte 45 Nordeste 0 -- -- 100
2021-02-25 03:00:00 9.4 21 Norte 41 Nordeste 0 -- -- 100
2021-02-25 02:00:00 9.4 15 Nordeste 48 Norte 0 -- -- 100
2021-02-25 01:00:00 9.5 14 Nordeste 46 Nordeste 0 -- -- 100
2021-02-25 00:00:00 9.7 19 Nordeste 41 Nordeste 0 -- -- 99
2021-02-24 23:00:00 9.5 17 Norte 38 Nordeste 0 -- -- 96
2021-02-24 22:00:00 9.4 18 Nordeste 42 Nordeste 0 -- -- 99
2021-02-24 21:00:00 9.7 19 Nordeste 39 Nordeste 0 -- -- 96
2021-02-24 20:00:00 9.8 16 Nordeste 45 Norte 0 -- -- 97
2021-02-24 19:00:00 9.7 9 Norte 27 Noroeste 0 -- -- 96
2021-02-24 18:00:00 10.3 12 Norte 28 Nordeste 0 -- -- 90
2021-02-24 17:00:00 11.9 9 Norte 23 Noroeste 0 -- -- 78
2021-02-24 16:00:00 11.8 -- -- 32 Norte 0 -- -- 83
2021-02-24 15:00:00 12.7 -- -- 33 Norte 0 -- -- 69
2021-02-24 14:00:00 12.9 -- -- 39 Norte 0 -- -- 76
2021-02-24 13:00:00 12.3 -- -- 36 Norte 0 -- -- 85
2021-02-24 12:00:00 11.7 -- -- 34 Norte 0 -- -- 88
2021-02-24 11:00:00 11.1 -- -- 27 Norte 0 -- -- 91
2021-02-24 10:00:00 9.7 -- -- 31 Norte 0 -- -- 97
2021-02-24 09:00:00 9.9 -- -- 37 Norte 0 -- -- 100
2021-02-24 08:00:00 9.4 -- -- 33 Norte 0 -- -- 100
2021-02-24 07:00:00 8.8 -- -- 31 Norte 0 -- -- 100
2021-02-24 06:00:00 8.3 -- -- 32 Norte 0 -- -- 99
2021-02-24 05:00:00 8.6 -- -- 36 Norte 0 -- -- 100
2021-02-24 04:00:00 8.7 -- -- 32 Norte 0 -- -- 100
2021-02-24 03:00:00 8.8 -- -- 27 Norte 0 -- -- 99
2021-02-24 02:00:00 9.2 -- -- 30 Norte 0 -- -- 98
2021-02-24 01:00:00 9.6 -- -- 28 Norte 0 -- -- 99
2021-02-24 00:00:00 9.9 -- -- 28 Norte 0 -- -- 100
2021-02-23 23:00:00 9.9 -- -- 32 Norte 0 -- -- 99
2021-02-23 22:00:00 9.3 -- -- 29 Norte 0 -- -- 99
2021-02-23 21:00:00 9.6 -- -- 32 Norte 0 -- -- 99
2021-02-23 20:00:00 9.6 -- -- 24 Norte 0 -- -- 99
2021-02-23 19:00:00 10 14 Noroeste 20 Noroeste 0 -- -- 97
2021-02-23 18:00:00 12.7 13 Oeste 22 Oeste 0 -- -- 87
2021-02-23 17:00:00 13.9 14 Noroeste 22 Noroeste 0 -- -- 88
2021-02-23 16:00:00 13.6 9 Noroeste 18 Noroeste 0 -- -- 85
2021-02-23 15:00:00 15.7 9 Noroeste 14 Noroeste 0 -- -- 83
2021-02-23 14:00:00 13.4 6 Este 13 Este 0 -- -- 97
2021-02-23 13:00:00 13.3 4 Sudeste 12 Este 0 -- -- 94
2021-02-23 12:00:00 14.2 7 Este 15 Sudeste 0 -- -- 88
2021-02-23 11:00:00 14 9 Este 16 Este 0 -- -- 85
2021-02-23 10:00:00 13.1 5 Sudeste 13 Sudeste 0 -- -- 89
2021-02-23 09:00:00 12.9 7 Sur 11 Sur 0 -- -- 79
2021-02-23 08:00:00 8.4 7 Sur 10 Sur 0 -- -- 90
2021-02-23 07:00:00 7.4 6 Sur 9 Sur 0 -- -- 92
2021-02-23 06:00:00 7.1 5 Sur 8 Sur 0 -- -- 93
2021-02-23 05:00:00 7 5 Sudoeste 8 Sur 0 -- -- 92
2021-02-23 04:00:00 7.1 7 Sur 10 Sudoeste 0 -- -- 90
2021-02-23 03:00:00 6.6 5 Sudoeste 9 Sudoeste 0 -- -- 94
2021-02-23 02:00:00 6.8 6 Sudoeste 8 Sudoeste 0 -- -- 97
2021-02-23 01:00:00 6.9 5 Sudoeste 7 Sudoeste 0 -- -- 94
2021-02-23 00:00:00 7.1 5 Sudoeste 8 Sudoeste 0 -- -- 95
2021-02-22 23:00:00 7.3 8 Sudoeste 10 Sudoeste 0 -- -- 95
2021-02-22 22:00:00 7.7 4 Sudoeste 7 Sudoeste 0 -- -- 93
2021-02-22 21:00:00 7.9 4 Oeste 8 Sudoeste 0 -- -- 92
2021-02-22 20:00:00 8.8 5 Oeste 10 Oeste 0 -- -- 92
2021-02-22 19:00:00 10.6 8 Noroeste 10 Noroeste 0 -- -- 95
2021-02-22 18:00:00 13.5 6 Noroeste 13 Noroeste 0 -- -- 82
2021-02-22 17:00:00 13.8 10 Noroeste 19 Oeste 0 -- -- 83
2021-02-22 16:00:00 14.4 11 Noroeste 19 Noroeste 0 -- -- 81
2021-02-22 15:00:00 14.2 9 Norte 19 Noroeste 0 -- -- 81
2021-02-22 14:00:00 15.1 6 Norte 17 Noroeste 0 -- -- 82
2021-02-22 13:00:00 14.6 4 Nordeste 14 Nordeste 0 -- -- 80
2021-02-22 12:00:00 13.8 6 Nordeste 14 Noroeste 0 -- -- 87
2021-02-22 11:00:00 13.6 7 Noroeste 17 Noroeste 0 -- -- 82
2021-02-22 10:00:00 12.3 13 Noroeste 17 Norte 0 -- -- 89
2021-02-22 09:00:00 12.1 8 Noroeste 12 Noroeste 0 -- -- 84
2021-02-22 08:00:00 8.3 9 Oeste 15 Noroeste 0 -- -- 95
2021-02-22 07:00:00 8.2 7 Oeste 15 Noroeste 0 -- -- 96
2021-02-22 06:00:00 8.7 9 Noroeste 22 Noroeste 0 -- -- 91
2021-02-22 05:00:00 8.4 15 Oeste 21 Oeste 0 -- -- 87
2021-02-22 04:00:00 8.4 14 Noroeste 20 Noroeste 0 -- -- 81
2021-02-22 03:00:00 7.3 16 Oeste 19 Oeste 0 -- -- 75
2021-02-22 02:00:00 7.3 12 Oeste 15 Oeste 0 -- -- 73
2021-02-22 01:00:00 7.3 12 Oeste 15 Oeste 0 -- -- 70
2021-02-22 00:00:00 6.5 3 Noroeste 15 Noroeste 0 -- -- 89
2021-02-21 23:00:00 7.7 9 Noroeste 30 Oeste 0 -- -- 97
2021-02-21 22:00:00 8.4 21 Noroeste 31 Oeste 0 -- -- 97
2021-02-21 21:00:00 8.5 23 Noroeste 33 Noroeste 0 -- -- 97
2021-02-21 20:00:00 8 12 Noroeste 27 Norte 0 -- -- 95
2021-02-21 19:00:00 8.3 14 Noroeste 22 Norte 0 -- -- 94
2021-02-21 18:00:00 10.9 -- -- 23 Norte 0 -- -- 79
2021-02-21 17:00:00 12.6 -- -- 29 Norte 0 -- -- 74
2021-02-21 16:00:00 13.9 17 Noroeste 28 Oeste 0 -- -- 46
2021-02-21 15:00:00 12.2 17 Oeste 25 Oeste 0 -- -- 68
2021-02-21 14:00:00 12.7 15 Oeste 32 Norte 0 -- -- 62
2021-02-21 13:00:00 12 -- -- 31 Noroeste 0 -- -- 77
2021-02-21 12:00:00 11.4 22 Oeste 44 Norte 0 -- -- 69
2021-02-21 11:00:00 10.1 -- -- 43 Norte 0 -- -- 94
2021-02-21 10:00:00 9 -- -- 50 Norte 0 -- -- 96
2021-02-21 09:00:00 8.5 -- -- 48 Norte 0 -- -- 100
2021-02-21 08:00:00 7.8 -- -- 49 Norte 0 -- -- 100
2021-02-21 07:00:00 8.1 -- -- 55 Norte 0 -- -- 100
2021-02-21 06:00:00 8 -- -- 54 Norte 0 -- -- 100
2021-02-21 05:00:00 8.7 -- -- 62 Norte 0 -- -- 100
2021-02-21 04:00:00 9.1 -- -- 64 Norte 0 -- -- 100
2021-02-21 03:00:00 8.9 -- -- 72 Norte 0 -- -- 100
2021-02-21 02:00:00 9.1 -- -- 63 Norte 0 -- -- 100
2021-02-21 01:00:00 9.5 -- -- 65 Norte 0.2 -- -- 100
2021-02-21 00:00:00 10.7 -- -- 62 Norte 0.8 -- -- 100
2021-02-20 23:00:00 10.5 -- -- 62 Norte 4.2 -- -- 100
2021-02-20 22:00:00 11 44 Oeste 67 Oeste 0 -- -- 100
2021-02-20 21:00:00 11.2 42 Oeste 70 Oeste 2.4 -- -- 100
2021-02-20 20:00:00 12.5 41 Oeste 63 Oeste 0.4 -- -- 100
2021-02-20 19:00:00 11.6 44 Oeste 71 Oeste 0 -- -- 100
2021-02-20 18:00:00 11.8 42 Oeste 62 Oeste 0 -- -- 99
2021-02-20 17:00:00 12.2 42 Oeste 65 Oeste 0 -- -- 99
2021-02-20 16:00:00 12.4 38 Oeste 68 Oeste 0 -- -- 98
2021-02-20 15:00:00 12.1 40 Oeste 75 Noroeste 0 -- -- 97
2021-02-20 14:00:00 12.6 38 Oeste 65 Oeste 0 -- -- 91
2021-02-20 13:00:00 15.8 31 Noroeste 53 Oeste 0 -- -- 75
2021-02-20 12:00:00 15.5 40 Oeste 56 Oeste 0 -- -- 67
2021-02-20 11:00:00 13.8 27 Oeste 48 Oeste 0 -- -- 72
2021-02-20 10:00:00 12.7 32 Oeste 50 Noroeste 0 -- -- 68
2021-02-20 09:00:00 13.6 21 Oeste 35 Norte 0 -- -- 54
2021-02-20 08:00:00 10.3 -- -- 37 Norte 0 -- -- 50
2021-02-20 07:00:00 11.4 24 Oeste 33 Norte 0 -- -- 38
2021-02-20 06:00:00 9.6 -- -- 40 Norte 0 -- -- 40
2021-02-20 05:00:00 10.6 -- -- 45 Norte 0 -- -- 42
2021-02-20 04:00:00 11.1 -- -- 38 Norte 0 -- -- 29
2021-02-20 03:00:00 10.2 -- -- 36 Norte 0 -- -- 36
2021-02-20 02:00:00 10.7 -- -- 30 Norte 0 -- -- 32
2021-02-20 01:00:00 11.9 22 Oeste 30 Norte 0 -- -- 28
2021-02-20 00:00:00 8.1 2 Sudoeste 13 Norte 0 -- -- 35
2021-02-19 23:00:00 8.4 2 Oeste 11 Noroeste 0 -- -- 36
2021-02-19 22:00:00 9.4 -- -- 21 Norte 0 -- -- 32
2021-02-19 21:00:00 7.3 -- -- 10 Norte 0 -- -- 39
2021-02-19 20:00:00 7.6 -- -- 8 Norte 0 -- -- 45
2021-02-19 19:00:00 9.9 6 Norte 13 Norte 0 -- -- 80
2021-02-19 18:00:00 12 15 Oeste 20 Sudoeste 0 -- -- 78
2021-02-19 17:00:00 14 8 Nordeste 23 Sudoeste 0 -- -- 69
2021-02-19 16:00:00 14.9 13 Sudoeste 22 Sudoeste 0 -- -- 45
2021-02-19 15:00:00 15.9 3 Oeste 14 Este 0 -- -- 68
2021-02-19 14:00:00 15.7 5 Noroeste 18 Sur 0 -- -- 70
2021-02-19 13:00:00 15.4 12 Sudeste 21 Sudeste 0 -- -- 60
2021-02-19 12:00:00 13.8 8 Este 21 Sudeste 0 -- -- 75
2021-02-19 11:00:00 14.3 11 Sudeste 18 Sudeste 0 -- -- 49
2021-02-19 10:00:00 13.5 9 Sudeste 13 Sudeste 0 -- -- 33
2021-02-19 09:00:00 10.8 6 Sur 10 Sur 0 -- -- 40
2021-02-19 08:00:00 6.3 4 Sudoeste 13 Sur 0 -- -- 40
2021-02-19 07:00:00 7.2 10 Sur 15 Sudoeste 0 -- -- 36
2021-02-19 06:00:00 6.8 11 Sur 14 Sur 0 -- -- 41
2021-02-19 05:00:00 4.5 8 Sudoeste 12 Oeste 0 -- -- 52
2021-02-19 04:00:00 4.1 6 Oeste 13 Noroeste 0 -- -- 63
2021-02-19 03:00:00 4.3 8 Oeste 11 Oeste 0 -- -- 51
2021-02-19 02:00:00 4.8 8 Oeste 10 Oeste 0 -- -- 48
2021-02-19 01:00:00 4.4 8 Sudoeste 11 Oeste 0 -- -- 49
2021-02-19 00:00:00 4.7 9 Oeste 11 Oeste 0 -- -- 47
2021-02-18 23:00:00 4.7 8 Oeste 10 Oeste 0 -- -- 47
2021-02-18 22:00:00 6.5 9 Oeste 11 Oeste 0 -- -- 38
2021-02-18 21:00:00 6.4 9 Oeste 10 Oeste 0 -- -- 39
2021-02-18 20:00:00 6.9 8 Oeste 11 Oeste 0 -- -- 45
2021-02-18 19:00:00 8.6 9 Oeste 12 Noroeste 0 -- -- 52
2021-02-18 18:00:00 11.7 7 Noroeste 17 Noroeste 0 -- -- 49
2021-02-18 17:00:00 11.8 13 Noroeste 19 Noroeste 0 -- -- 56
2021-02-18 16:00:00 12.4 10 Noroeste 17 Noroeste 0 -- -- 72
2021-02-18 15:00:00 13.5 8 Noroeste 17 Noroeste 0 -- -- 61
2021-02-18 14:00:00 14.1 6 Norte 14 Nordeste 0 -- -- 64
2021-02-18 13:00:00 13.6 8 Noroeste 16 Noroeste 0 -- -- 48
2021-02-18 12:00:00 12.2 10 Noroeste 21 Noroeste 0 -- -- 70
2021-02-18 11:00:00 10.7 11 Noroeste 21 Noroeste 0 -- -- 79
2021-02-18 10:00:00 10.9 7 Noroeste 15 Noroeste 0 -- -- 77
2021-02-18 09:00:00 10.5 4 Este 10 Nordeste 0 -- -- 40
2021-02-18 08:00:00 4.8 4 Sudoeste 14 Nordeste 0 -- -- 65
2021-02-18 07:00:00 5.4 5 Noroeste 14 Nordeste 0 -- -- 90
2021-02-18 06:00:00 6.8 4 Oeste 20 Noroeste 0 -- -- 59
2021-02-18 05:00:00 7.3 10 Noroeste 25 Noroeste 0 -- -- 97
2021-02-18 04:00:00 7.4 15 Noroeste 25 Noroeste 0 -- -- 97
2021-02-18 03:00:00 7.3 17 Noroeste 25 Noroeste 0 -- -- 97
2021-02-18 02:00:00 7.3 17 Noroeste 23 Noroeste 0 -- -- 97
2021-02-18 01:00:00 6.8 20 Noroeste 25 Noroeste 0 -- -- 93
2021-02-18 00:00:00 7 17 Noroeste 22 Noroeste 0 -- -- 64
2021-02-17 23:00:00 7.9 15 Noroeste 27 Noroeste 0 -- -- 54
2021-02-17 22:00:00 8.4 19 Noroeste 29 Noroeste 0 -- -- 50
2021-02-17 21:00:00 7.9 18 Noroeste 30 Noroeste 0 -- -- 52
2021-02-17 20:00:00 8.1 21 Noroeste 32 Noroeste 0 -- -- 50
2021-02-17 19:00:00 9.3 21 Noroeste 33 Noroeste 0 -- -- 48
2021-02-17 18:00:00 10.9 20 Noroeste 32 Noroeste 0 -- -- 50
2021-02-17 17:00:00 12.3 22 Noroeste 31 Norte 0 -- -- 47
2021-02-17 16:00:00 13.3 14 Noroeste 25 Noroeste 0 -- -- 42
2021-02-17 15:00:00 14.3 10 Nordeste 28 Nordeste 0 -- -- 34
2021-02-17 14:00:00 13.3 9 Este 26 Este 0 -- -- 48
2021-02-17 13:00:00 12.4 12 Sudeste 23 Este 0 -- -- 54
2021-02-17 12:00:00 10.9 18 Sudeste 32 Este 0 -- -- 70
2021-02-17 11:00:00 11 19 Sudeste 29 Sudeste 0 -- -- 80
2021-02-17 10:00:00 10.6 20 Sudeste 28 Sudeste 0 -- -- 78
2021-02-17 09:00:00 9.7 20 Sudeste 30 Sudeste 0 -- -- 76
2021-02-17 08:00:00 9 20 Sudeste 32 Este 0 -- -- 75
2021-02-17 07:00:00 9.2 22 Sudeste 37 Este 0 -- -- 68
2021-02-17 06:00:00 9.5 24 Sudeste 46 Este 0 -- -- 67
2021-02-17 05:00:00 9.6 26 Sudeste 45 Este 0 -- -- 61
2021-02-17 04:00:00 10 26 Sudeste 45 Este 0 -- -- 53
2021-02-17 03:00:00 10.9 28 Sudeste 47 Sudeste 0 -- -- 35
2021-02-17 02:00:00 10.2 21 Sudeste 30 Sudeste 0 -- -- 39
2021-02-17 01:00:00 10.4 19 Sudeste 27 Sudeste 0 -- -- 38
2021-02-17 00:00:00 9.9 18 Sudeste 25 Sudeste 0 -- -- 39
2021-02-16 23:00:00 9.7 10 Sudeste 37 Este 0 -- -- 43
2021-02-16 22:00:00 9.6 19 Sudeste 35 Sudeste 0 -- -- 40
2021-02-16 21:00:00 9.1 22 Sudeste 31 Este 0 -- -- 60
2021-02-16 20:00:00 8.9 16 Sudeste 28 Sudeste 0 -- -- 55
2021-02-16 19:00:00 9.4 18 Sudeste 31 Sudeste 0 -- -- 53
2021-02-16 18:00:00 10.5 21 Sudeste 28 Sudeste 0 -- -- 52
2021-02-16 17:00:00 11.5 18 Sudeste 31 Este 0 -- -- 64
2021-02-16 16:00:00 12.5 17 Sudeste 32 Sudeste 0 -- -- 58
2021-02-16 15:00:00 13.1 23 Sudeste 33 Sudeste 0 -- -- 54
2021-02-16 14:00:00 12.5 16 Sudeste 27 Este 0 -- -- 67
2021-02-16 13:00:00 12.1 18 Sudeste 32 Sudeste 0 -- -- 84
2021-02-16 12:00:00 12.3 24 Sudeste 35 Sudeste 0 -- -- 80
2021-02-16 11:00:00 12.2 22 Sudeste 39 Sudeste 0 -- -- 77
2021-02-16 10:00:00 12 26 Sudeste 39 Sudeste 0 -- -- 67
2021-02-16 09:00:00 11.4 26 Sudeste 44 Sudeste 0 -- -- 55
2021-02-16 08:00:00 11.2 32 Sudeste 50 Sudeste 0 -- -- 47
2021-02-16 07:00:00 11.4 31 Sudeste 46 Este 0 -- -- 56
2021-02-16 06:00:00 11.6 26 Sudeste 51 Sudeste 0 -- -- 57
2021-02-16 05:00:00 12 32 Sudeste 60 Este 0 -- -- 53
2021-02-16 04:00:00 12.4 28 Sudeste 44 Sudeste 0 -- -- 56
2021-02-16 03:00:00 13.7 26 Sudeste 45 Sudeste 0 -- -- 36
2021-02-16 02:00:00 14 19 Sudeste 34 Sudeste 0 -- -- 29
2021-02-16 01:00:00 13.7 24 Sudeste 45 Sudeste 0 -- -- 30
2021-02-16 00:00:00 13.5 20 Sudeste 41 Sudeste 0 -- -- 28
2021-02-15 23:00:00 13.1 13 Sudeste 24 Sudeste 0 -- -- 30
2021-02-15 22:00:00 12.9 13 Sur 21 Sur 0 -- -- 35
2021-02-15 21:00:00 13.1 14 Sur 19 Sudeste 0 -- -- 34
2021-02-15 20:00:00 11 8 Sur 15 Sudeste 0 -- -- 44
2021-02-15 19:00:00 12.9 10 Sudeste 16 Sudeste 0 -- -- 39
2021-02-15 18:00:00 15.4 10 Sur 17 Sur 0 -- -- 36
2021-02-15 17:00:00 16 10 Sudeste 16 Sudeste 0 -- -- 50
2021-02-15 16:00:00 16.6 11 Sudeste 21 Sudeste 0 -- -- 50
2021-02-15 15:00:00 16.4 14 Sudeste 23 Sudeste 0 -- -- 51
2021-02-15 14:00:00 16.8 6 Sudeste 25 Sudeste 0 -- -- 40
2021-02-15 13:00:00 16.7 12 Sudeste 28 Sudeste 0 -- -- 39
2021-02-15 12:00:00 16 15 Sudeste 33 Sudeste 0 -- -- 36
2021-02-15 11:00:00 16 17 Sudeste 44 Norte 0 -- -- 41
2021-02-15 10:00:00 16 25 Sudeste 44 Norte 0 -- -- 30
2021-02-15 09:00:00 15.1 16 Sudeste 33 Sudeste 0 -- -- 35
2021-02-15 08:00:00 13.1 14 Sudeste 27 Sur 0 -- -- 36
2021-02-15 07:00:00 13.6 19 Sudeste 32 Sudeste 0 -- -- 32
2021-02-15 06:00:00 14.3 21 Sudeste 34 Sudeste 0 -- -- 26
2021-02-15 05:00:00 14.5 20 Sudeste 32 Sudeste 0 -- -- 23
2021-02-15 04:00:00 14 17 Sur 29 Sur 0 -- -- 25
2021-02-15 03:00:00 13.7 15 Sur 25 Sudeste 0 -- -- 24
2021-02-15 02:00:00 13.2 13 Sur 24 Sur 0 -- -- 24
2021-02-15 01:00:00 11.2 11 Sudeste 16 Sudeste 0 -- -- 33
2021-02-15 00:00:00 11.2 11 Sudeste 14 Sudeste 0 -- -- 32
2021-02-14 23:00:00 6.9 3 Sur 6 Sudoeste 0 -- -- 54
2021-02-14 22:00:00 8.9 0 Calma 17 Nordeste 0 -- -- 45
2021-02-14 21:00:00 14.9 7 Nordeste 18 Este 0 -- -- 19
2021-02-14 20:00:00 10 4 Noroeste 10 Norte 0 -- -- 41
2021-02-14 19:00:00 11.1 0 Calma 12 Este 0 -- -- 48
2021-02-14 18:00:00 17.4 3 Sudeste 10 Este 0 -- -- 21
2021-02-14 17:00:00 17.8 5 Sudeste 12 Sudeste 0 -- -- 21
2021-02-14 16:00:00 17.7 7 Sudeste 14 Sudeste 0 -- -- 27
2021-02-14 15:00:00 17.4 7 Sudeste 16 Sudeste 0 -- -- 31
2021-02-14 14:00:00 16.9 11 Sudeste 22 Este 0 -- -- 30
2021-02-14 13:00:00 17.1 15 Sudeste 24 Sudeste 0 -- -- 33
2021-02-14 12:00:00 17.2 17 Sudeste 22 Este 0 -- -- 32
2021-02-14 11:00:00 16.4 14 Sudeste 23 Sudeste 0 -- -- 34
2021-02-14 10:00:00 16 13 Sudeste 22 Sudeste 0 -- -- 38
2021-02-14 09:00:00 14.5 13 Sudeste 17 Este 0 -- -- 40
2021-02-14 08:00:00 6.8 8 Sudoeste 10 Sudoeste 0 -- -- 64
2021-02-14 07:00:00 5.7 5 Sudoeste 8 Oeste 0 -- -- 69
2021-02-14 06:00:00 6.6 3 Oeste 10 Oeste 0 -- -- 62
2021-02-14 05:00:00 7 5 Noroeste 12 Nordeste 0 -- -- 62
2021-02-14 04:00:00 8.6 5 Noroeste 10 Sudoeste 0 -- -- 56
2021-02-14 03:00:00 8.3 6 Sur 12 Sur 0 -- -- 65
2021-02-14 02:00:00 7.4 6 Sudoeste 9 Oeste 0 -- -- 65
2021-02-14 01:00:00 7.3 5 Oeste 10 Oeste 0 -- -- 68
2021-02-14 00:00:00 6.7 6 Oeste 11 Noroeste 0 -- -- 89
2021-02-13 23:00:00 7.9 10 Noroeste 16 Norte 0 -- -- 100
2021-02-13 22:00:00 9 11 Noroeste 20 Noroeste 0 -- -- 100
2021-02-13 21:00:00 9.6 15 Noroeste 26 Noroeste 0 -- -- 100
2021-02-13 20:00:00 9.7 14 Noroeste 27 Norte 0 -- -- 100
2021-02-13 19:00:00 9.9 13 Noroeste 20 Norte 0 -- -- 100
2021-02-13 18:00:00 10.5 13 Norte 17 Norte 0 -- -- 98
2021-02-13 17:00:00 12.3 10 Norte 19 Noroeste 0 -- -- 93
2021-02-13 16:00:00 12 12 Norte 22 Norte 0 -- -- 95
2021-02-13 15:00:00 13.5 9 Norte 20 Nordeste 0 -- -- 89
2021-02-13 14:00:00 13.3 9 Nordeste 22 Nordeste 0 -- -- 82
2021-02-13 13:00:00 13.9 12 Nordeste 21 Nordeste 0 -- -- 83
2021-02-13 12:00:00 12 14 Nordeste 28 Nordeste 0 -- -- 92
2021-02-13 07:00:00 -- -- -- -- -- -- -- -- --
2021-02-13 06:00:00 -- -- -- -- -- -- -- -- --
2021-02-13 05:00:00 9.4 12 Noroeste 26 Norte 0 -- -- 87
2021-02-13 04:00:00 9.3 7 Norte 24 Noroeste 0 -- -- 94
2021-02-13 03:00:00 9.4 9 Noroeste 22 Nordeste 0 -- -- 100
2021-02-13 02:00:00 9.6 9 Norte 24 Nordeste 0 -- -- 100
2021-02-13 01:00:00 9.6 9 Norte 27 Nordeste 0 -- -- 100
2021-02-13 00:00:00 9.7 8 Nordeste 30 Noroeste 0 -- -- 100
2021-02-12 23:00:00 9.7 8 Norte 33 Nordeste 0 -- -- 100
2021-02-12 22:00:00 9.7 8 Noroeste 26 Nordeste 0 -- -- 100
2021-02-12 21:00:00 9.8 8 Nordeste 28 Nordeste 0 -- -- 100
2021-02-12 20:00:00 9.8 7 Noroeste 27 Noroeste 0 -- -- 100
2021-02-12 19:00:00 9.8 9 Noroeste 25 Noroeste 0 -- -- 98
2021-02-12 18:00:00 10.5 12 Nordeste 25 Nordeste 0 -- -- 93
2021-02-12 17:00:00 11.1 12 Nordeste 28 Nordeste 0 -- -- 94
2021-02-12 16:00:00 11.1 12 Nordeste 25 Nordeste 0 -- -- 95
2021-02-12 15:00:00 11.9 11 Nordeste 29 Nordeste 0 -- -- 93
2021-02-12 14:00:00 12 14 Nordeste 28 Nordeste 0 -- -- 89
2021-02-12 13:00:00 11.2 14 Nordeste 27 Nordeste 0.2 -- -- 92
2021-02-12 12:00:00 11.4 13 Nordeste 29 Nordeste 0 -- -- 93
2021-02-12 11:00:00 11.2 13 Nordeste 26 Nordeste 0 -- -- 95
2021-02-12 10:00:00 10.5 9 Nordeste 24 Nordeste 0.4 -- -- 100
2021-02-12 09:00:00 10.1 13 Nordeste 25 Nordeste 0 -- -- 94
2021-02-12 08:00:00 9.8 10 Nordeste 23 Nordeste 0 -- -- 97
2021-02-12 07:00:00 9.6 9 Nordeste 20 Nordeste 0 -- -- 95
2021-02-12 06:00:00 9.7 12 Nordeste 23 Nordeste 0 -- -- 95
2021-02-12 05:00:00 9.6 10 Nordeste 25 Este 0 -- -- 98
2021-02-12 04:00:00 9.5 10 Este 28 Nordeste 0 -- -- 98
2021-02-12 03:00:00 9.4 7 Nordeste 28 Nordeste 0 -- -- 97
2021-02-12 02:00:00 9.1 9 Nordeste 22 Nordeste 0 -- -- 97
2021-02-12 01:00:00 9.2 11 Nordeste 22 Este 0 -- -- 98
2021-02-12 00:00:00 9.5 7 Nordeste 22 Este 0 -- -- 98
2021-02-11 23:00:00 9.6 11 Nordeste 25 Nordeste 0 -- -- 99
2021-02-11 22:00:00 9.3 9 Noroeste 23 Noroeste 0 -- -- 99
2021-02-11 21:00:00 9.5 14 Noroeste 23 Noroeste 0 -- -- 98
2021-02-11 20:00:00 9.4 11 Noroeste 21 Noroeste 0 -- -- 97
2021-02-11 19:00:00 10.4 10 Noroeste 28 Noroeste 0 -- -- 99
2021-02-11 18:00:00 10.4 14 Noroeste 21 Norte 0 -- -- 95
2021-02-11 17:00:00 11.8 15 Noroeste 23 Norte 0 -- -- 91
2021-02-11 16:00:00 12.5 13 Noroeste 23 Noroeste 0 -- -- 88
2021-02-11 15:00:00 12.8 15 Noroeste 23 Norte 0 -- -- 86
2021-02-11 14:00:00 12.1 14 Noroeste 21 Norte 0 -- -- 88
2021-02-11 13:00:00 12.5 13 Noroeste 25 Norte 0 -- -- 89
2021-02-11 12:00:00 12.3 16 Noroeste 25 Norte 0 -- -- 89
2021-02-11 11:00:00 12.5 10 Noroeste 17 Noroeste 0 -- -- 87
2021-02-11 10:00:00 12.1 10 Noroeste 15 Noroeste 0 -- -- 86
2021-02-11 09:00:00 10.8 12 Noroeste 17 Noroeste 0 -- -- 91
2021-02-11 08:00:00 7.8 10 Noroeste 18 Noroeste 0 -- -- 95
2021-02-11 07:00:00 7.6 11 Noroeste 18 Oeste 0 -- -- 96
2021-02-11 06:00:00 8 14 Noroeste 18 Noroeste 0 -- -- 94
2021-02-11 05:00:00 8.1 15 Noroeste 19 Noroeste 0 -- -- 92
2021-02-11 04:00:00 7.8 16 Noroeste 18 Noroeste 0 -- -- 92
2021-02-11 03:00:00 9.2 13 Noroeste 19 Noroeste 0 -- -- 99
2021-02-11 02:00:00 9.3 12 Noroeste 17 Oeste 0.2 -- -- 99
2021-02-11 01:00:00 9.8 12 Noroeste 19 Noroeste 0 -- -- 100
2021-02-11 00:00:00 10.8 13 Noroeste 23 Noroeste 0.6 -- -- 100
2021-02-10 23:00:00 10.8 21 Noroeste 29 Noroeste 0.2 -- -- 100
2021-02-10 22:00:00 10.7 12 Noroeste 21 Noroeste 0.2 -- -- 100
2021-02-10 21:00:00 10.6 10 Noroeste 19 Noroeste 0.2 -- -- 100
2021-02-10 20:00:00 10.8 11 Noroeste 18 Noroeste 0 -- -- 99
2021-02-10 19:00:00 11 11 Noroeste 18 Noroeste 0 -- -- 98
2021-02-10 18:00:00 11.9 10 Noroeste 17 Noroeste 0 -- -- 94
2021-02-10 17:00:00 13.1 10 Noroeste 17 Noroeste 0 -- -- 86
2021-02-10 16:00:00 14.1 12 Norte 18 Noroeste 0 -- -- 84
2021-02-10 15:00:00 14.5 12 Noroeste 21 Norte 0 -- -- 76
2021-02-10 14:00:00 14.4 9 Noroeste 16 Norte 0 -- -- 83
2021-02-10 13:00:00 15.1 7 Norte 17 Noroeste 0 -- -- 73
2021-02-10 12:00:00 14.5 10 Noroeste 18 Norte 0 -- -- 64
2021-02-10 11:00:00 12.7 10 Norte 16 Norte 0 -- -- 84
2021-02-10 10:00:00 13.3 10 Noroeste 16 Noroeste 0 -- -- 76
2021-02-10 09:00:00 11.4 7 Noroeste 15 Noroeste 0 -- -- 73
2021-02-10 08:00:00 6.9 7 Oeste 11 Noroeste 0 -- -- 82
2021-02-10 07:00:00 6.4 10 Noroeste 13 Noroeste 0 -- -- 93
2021-02-10 06:00:00 5.6 8 Oeste 12 Noroeste 0 -- -- 93
2021-02-10 05:00:00 6.5 10 Noroeste 13 Noroeste 0 -- -- 95
2021-02-10 04:00:00 7.4 7 Noroeste 19 Noroeste 0 -- -- 95
2021-02-10 03:00:00 7.7 12 Noroeste 15 Noroeste 0 -- -- 96
2021-02-10 02:00:00 6.7 12 Noroeste 14 Noroeste 0 -- -- 92
2021-02-10 01:00:00 6.8 13 Oeste 14 Oeste 0 -- -- 97
2021-02-10 00:00:00 6.8 10 Oeste 15 Oeste 0 -- -- 96
2021-02-09 23:00:00 7.6 12 Oeste 17 Noroeste 0 -- -- 96
2021-02-09 22:00:00 8.1 14 Noroeste 22 Noroeste 0 -- -- 93
2021-02-09 21:00:00 8.5 17 Noroeste 26 Noroeste 0 -- -- 90
2021-02-09 20:00:00 9 19 Noroeste 28 Noroeste 0 -- -- 90
2021-02-09 19:00:00 9.4 20 Noroeste 28 Noroeste 0 -- -- 92
2021-02-09 18:00:00 11.7 8 Noroeste 18 Norte 0 -- -- 87
2021-02-09 17:00:00 12.2 14 Norte 19 Noroeste 0 -- -- 85
2021-02-09 16:00:00 13.1 9 Noroeste 16 Noroeste 0 -- -- 87
2021-02-09 15:00:00 13.6 6 Este 16 Nordeste 0 -- -- 83
2021-02-09 14:00:00 15 7 Nordeste 16 Nordeste 0 -- -- 71
2021-02-09 13:00:00 14.5 7 Noroeste 18 Noroeste 0 -- -- 63
2021-02-09 12:00:00 13.4 10 Norte 17 Noroeste 0 -- -- 65
2021-02-09 11:00:00 10.9 12 Noroeste 22 Noroeste 0 -- -- 89
2021-02-09 10:00:00 9.3 10 Norte 20 Noroeste 0 -- -- 100
2021-02-09 09:00:00 8.2 7 Norte 18 Noroeste 0 -- -- 100
2021-02-09 08:00:00 7.2 9 Noroeste 21 Noroeste 0 -- -- 100
2021-02-09 07:00:00 7.5 16 Noroeste 21 Noroeste 0 -- -- 100
2021-02-09 06:00:00 7.4 13 Noroeste 18 Noroeste 0 -- -- 100
2021-02-09 05:00:00 6.7 13 Noroeste 18 Norte 0 -- -- 100
2021-02-09 04:00:00 5.6 11 Noroeste 16 Noroeste 0 -- -- 93
2021-02-09 03:00:00 6.8 9 Oeste 13 Oeste 0 -- -- 55
2021-02-09 02:00:00 6.7 9 Oeste 16 Noroeste 0 -- -- 62
2021-02-09 01:00:00 8.1 13 Noroeste 20 Noroeste 0 -- -- 100
2021-02-09 00:00:00 8.8 17 Noroeste 27 Noroeste 0 -- -- 100
2021-02-08 23:00:00 9 18 Noroeste 26 Noroeste 0 -- -- 100
2021-02-08 22:00:00 9 16 Noroeste 22 Noroeste 0 -- -- 100
2021-02-08 21:00:00 6.7 9 Noroeste 22 Noroeste 0 -- -- 89
2021-02-08 20:00:00 8.9 17 Noroeste 24 Noroeste 0 -- -- 97
2021-02-08 19:00:00 8.8 16 Noroeste 20 Noroeste 0 -- -- 97
2021-02-08 18:00:00 10.8 13 Noroeste 19 Noroeste 0 -- -- 94
2021-02-08 17:00:00 14.6 0 Calma 12 Nordeste 0 -- -- 83
2021-02-08 16:00:00 13.9 7 Norte 13 Sudeste 0 -- -- 89
2021-02-08 15:00:00 14.3 5 Noroeste 13 Noroeste 0 -- -- 80
2021-02-08 14:00:00 12.4 9 Norte 18 Noroeste 0.2 -- -- 87
2021-02-08 13:00:00 11.7 11 Norte 20 Norte 0 -- -- 95
2021-02-08 12:00:00 12 8 Noroeste 19 Norte 0 -- -- 98
2021-02-08 11:00:00 10.7 13 Noroeste 21 Norte 0 -- -- 100
2021-02-08 10:00:00 10 14 Noroeste 24 Noroeste 0 -- -- 100
2021-02-08 09:00:00 9 13 Noroeste 21 Noroeste 0 -- -- 100
2021-02-08 08:00:00 8.2 12 Noroeste 21 Noroeste 0 -- -- 100
2021-02-08 07:00:00 8.5 14 Noroeste 22 Noroeste 0 -- -- 100
2021-02-08 06:00:00 8.3 13 Noroeste 21 Norte 0 -- -- 100
2021-02-08 05:00:00 8 8 Noroeste 17 Noroeste 0.2 -- -- 100
2021-02-08 04:00:00 8.3 13 Noroeste 21 Noroeste 0 -- -- 100
2021-02-08 03:00:00 7.4 12 Noroeste 15 Norte 0 -- -- 100
2021-02-08 02:00:00 7.7 9 Noroeste 17 Noroeste 0 -- -- 92
2021-02-08 01:00:00 7.8 10 Noroeste 21 Noroeste 0 -- -- 100
2021-02-08 00:00:00 8.3 14 Noroeste 21 Noroeste 0 -- -- 100
2021-02-07 23:00:00 8.4 12 Noroeste 23 Noroeste 0 -- -- 100
2021-02-07 22:00:00 8.3 13 Noroeste 22 Noroeste 0 -- -- 99
2021-02-07 21:00:00 8 9 Noroeste 16 Noroeste 0 -- -- 100
2021-02-07 20:00:00 7.7 12 Noroeste 17 Noroeste 0 -- -- 98
2021-02-07 19:00:00 7.7 11 Noroeste 17 Noroeste 0 -- -- 97
2021-02-07 18:00:00 9.7 13 Noroeste 19 Noroeste 0 -- -- 90
2021-02-07 17:00:00 10.8 12 Noroeste 19 Noroeste 0 -- -- 88
2021-02-07 16:00:00 10.3 10 Noroeste 23 Noroeste 0 -- -- 91
2021-02-07 15:00:00 10.5 8 Norte 21 Noroeste 0 -- -- 87
2021-02-07 14:00:00 11.1 12 Noroeste 22 Noroeste 0 -- -- 86
2021-02-07 13:00:00 10.7 10 Noroeste 17 Norte 0 -- -- 88
2021-02-07 12:00:00 10.2 6 Norte 20 Noroeste 0 -- -- 88
2021-02-07 11:00:00 10 12 Noroeste 26 Noroeste 0 -- -- 94
2021-02-07 10:00:00 9.1 18 Noroeste 28 Noroeste 0 -- -- 98
2021-02-07 09:00:00 7.9 19 Noroeste 32 Norte 0 -- -- 100
2021-02-07 08:00:00 7.5 15 Noroeste 25 Noroeste 0 -- -- 100
2021-02-07 07:00:00 7.2 12 Noroeste 23 Norte 0 -- -- 100
2021-02-07 06:00:00 7.8 14 Noroeste 28 Noroeste 0 -- -- 100
2021-02-07 05:00:00 7.7 19 Noroeste 33 Noroeste 0 -- -- 100
2021-02-07 04:00:00 7.7 21 Noroeste 40 Noroeste 0 -- -- 100
2021-02-07 03:00:00 7.7 20 Noroeste 32 Noroeste 0 -- -- 100
2021-02-07 02:00:00 7.9 22 Noroeste 41 Noroeste 0.8 -- -- 100
2021-02-07 01:00:00 7.8 26 Noroeste 34 Noroeste 0 -- -- 97
2021-02-07 00:00:00 7.7 15 Nordeste 32 Nordeste 0 -- -- 97
2021-02-06 23:00:00 7.8 9 Nordeste 41 Noroeste 0 -- -- 98
2021-02-06 22:00:00 7.6 27 Noroeste 41 Noroeste 0 -- -- 97
2021-02-06 21:00:00 7.7 28 Noroeste 42 Noroeste 0 -- -- 99
2021-02-06 20:00:00 7.8 27 Noroeste 47 Noroeste 0 -- -- 99
2021-02-06 19:00:00 8 30 Noroeste 49 Noroeste 0.2 -- -- 98
2021-02-06 18:00:00 8 32 Noroeste 46 Noroeste 0 -- -- 96
2021-02-06 17:00:00 8.6 27 Noroeste 52 Noroeste 0 -- -- 91
2021-02-06 16:00:00 8.7 32 Noroeste 48 Noroeste 0 -- -- 99
2021-02-06 15:00:00 8.6 27 Noroeste 53 Noroeste 0 -- -- 95
2021-02-06 14:00:00 8.6 35 Noroeste 48 Noroeste 0 -- -- 96
2021-02-06 13:00:00 8.9 28 Noroeste 50 Noroeste 0 -- -- 93
2021-02-06 12:00:00 8.6 34 Noroeste 49 Noroeste 0 -- -- 96
2021-02-06 11:00:00 7.8 29 Noroeste 51 Noroeste 0 -- -- 98
2021-02-06 10:00:00 8 35 Noroeste 52 Norte 0 -- -- 99
2021-02-06 09:00:00 7.4 36 Noroeste 57 Noroeste 0 -- -- 100
2021-02-06 08:00:00 6.8 36 Noroeste 53 Noroeste 0 -- -- 98
2021-02-06 07:00:00 6.9 35 Noroeste 51 Noroeste 0 -- -- 99
2021-02-06 06:00:00 6.8 35 Noroeste 50 Noroeste 0 -- -- 98
2021-02-06 05:00:00 6.7 36 Noroeste 53 Noroeste 0 -- -- 96
2021-02-06 04:00:00 6.8 37 Noroeste 57 Norte 0 -- -- 96
2021-02-06 03:00:00 6.5 27 Noroeste 46 Noroeste 0 -- -- 97
2021-02-06 02:00:00 6.6 27 Noroeste 45 Noroeste 0 -- -- 94
2021-02-06 01:00:00 6.4 28 Noroeste 54 Norte 0.6 -- -- 94
2021-02-06 00:00:00 6.3 26 Noroeste 46 Noroeste 1.6 -- -- 100
2021-02-05 23:00:00 6.4 36 Noroeste 54 Noroeste 0.6 -- -- 100
2021-02-05 22:00:00 6.5 37 Noroeste 62 Noroeste 0 -- -- 99
2021-02-05 21:00:00 6.3 38 Noroeste 62 Noroeste 0 -- -- 100
2021-02-05 20:00:00 6.2 42 Noroeste 65 Noroeste 0 -- -- 100
2021-02-05 19:00:00 6.1 38 Noroeste 62 Noroeste 0 -- -- 99
2021-02-05 18:00:00 6.1 38 Noroeste 58 Noroeste 0 -- -- 98
2021-02-05 17:00:00 6.2 36 Noroeste 57 Norte 0 -- -- 98
2021-02-05 16:00:00 6 36 Noroeste 58 Noroeste 0 -- -- 96
2021-02-05 15:00:00 5.7 39 Noroeste 71 Noroeste 0.8 -- -- 100
2021-02-05 14:00:00 6 37 Noroeste 58 Noroeste 0.2 -- -- 100
2021-02-05 13:00:00 5.4 36 Noroeste 68 Noroeste 1 -- -- 100
2021-02-05 12:00:00 6.1 38 Noroeste 64 Noroeste 0.4 -- -- 100
2021-02-05 11:00:00 6.1 40 Noroeste 63 Noroeste 0 -- -- 98
2021-02-05 10:00:00 5.8 38 Noroeste 54 Noroeste 0 -- -- 100
2021-02-05 09:00:00 5.4 35 Noroeste 55 Noroeste 0.2 -- -- 100
2021-02-05 08:00:00 4.9 39 Noroeste 67 Noroeste 0.2 -- -- 100
2021-02-05 07:00:00 4.9 36 Noroeste 66 Noroeste 2 -- -- 100
2021-02-05 06:00:00 5 42 Noroeste 73 Noroeste 0.6 -- -- 100
2021-02-05 05:00:00 5.4 44 Noroeste 75 Norte 0 -- -- 99
2021-02-05 04:00:00 5 36 Noroeste 59 Noroeste 0 -- -- 99
2021-02-05 03:00:00 4.6 35 Noroeste 63 Noroeste 0.6 -- -- 100
2021-02-05 02:00:00 4.8 32 Noroeste 72 Norte 5.2 -- -- 100
2021-02-05 01:00:00 5.7 32 Noroeste 57 Noroeste 0 -- -- 99
2021-02-05 00:00:00 5.5 34 Noroeste 49 Noroeste 0.2 -- -- 100
2021-02-04 23:00:00 4.6 31 Noroeste 60 Noroeste 2.6 -- -- 100
2021-02-04 22:00:00 6.3 31 Noroeste 54 Noroeste 0.6 -- -- 98
2021-02-04 21:00:00 6.1 35 Noroeste 54 Noroeste 1.8 -- -- 100
2021-02-04 20:00:00 6.4 31 Noroeste 50 Oeste 0.8 -- -- 99
2021-02-04 19:00:00 6.5 30 Noroeste 57 Noroeste 0 -- -- 100
2021-02-04 18:00:00 6.8 29 Noroeste 53 Noroeste 0 -- -- 100
2021-02-04 17:00:00 6.9 33 Noroeste 56 Noroeste 0 -- -- 100
2021-02-04 16:00:00 7.1 31 Noroeste 63 Noroeste 0.4 -- -- 100
2021-02-04 15:00:00 7.2 32 Noroeste 64 Noroeste 0.2 -- -- 100
2021-02-04 14:00:00 7.6 31 Noroeste 53 Norte 0.2 -- -- 100
2021-02-04 13:00:00 7.4 32 Noroeste 59 Noroeste 0 -- -- 99
2021-02-04 12:00:00 7.3 42 Noroeste 64 Noroeste 3.6 -- -- 99
2021-02-04 11:00:00 8.3 30 Noroeste 50 Noroeste 0 -- -- 96
2021-02-04 10:00:00 8 28 Noroeste 53 Noroeste 0 -- -- 95
2021-02-04 09:00:00 7.5 32 Noroeste 53 Noroeste 0 -- -- 100
2021-02-04 08:00:00 7.6 26 Noroeste 52 Noroeste 8 -- -- 100
2021-02-04 07:00:00 8.1 23 Noroeste 53 Noroeste 8.8 -- -- 100
2021-02-04 06:00:00 8.6 29 Noroeste 46 Noroeste 11.6 -- -- 100
2021-02-04 05:00:00 8.4 28 Noroeste 45 Noroeste 15 -- -- 100
2021-02-04 04:00:00 9.4 23 Noroeste 43 Noroeste 6.6 -- -- 100
2021-02-04 03:00:00 9.1 29 Noroeste 43 Noroeste 5.4 -- -- 100
2021-02-04 02:00:00 9.7 28 Noroeste 41 Noroeste 5 -- -- 100
2021-02-04 01:00:00 10.2 22 Noroeste 33 Noroeste 1.4 -- -- 100
2021-02-04 00:00:00 10.2 24 Noroeste 33 Noroeste 0.2 -- -- 100
2021-02-03 23:00:00 9.9 26 Noroeste 36 Noroeste 0.2 -- -- 99
2021-02-03 22:00:00 9.8 23 Noroeste 33 Noroeste 0 -- -- 99
2021-02-03 21:00:00 9.7 22 Noroeste 31 Noroeste 0 -- -- 99
2021-02-03 20:00:00 9.6 20 Noroeste 30 Noroeste 0 -- -- 98
2021-02-03 19:00:00 8.9 16 Noroeste 27 Noroeste 0 -- -- 95
2021-02-03 18:00:00 10.5 22 Noroeste 30 Noroeste 0 -- -- 90
2021-02-03 17:00:00 11.5 12 Norte 18 Norte 0 -- -- 86
2021-02-03 16:00:00 12.3 10 Norte 23 Norte 0 -- -- 83
2021-02-03 15:00:00 12.8 8 Norte 18 Norte 0 -- -- 83
2021-02-03 14:00:00 13.5 11 Norte 20 Nordeste 0 -- -- 84
2021-02-03 13:00:00 15.5 4 Norte 18 Noroeste 0 -- -- 74
2021-02-03 12:00:00 13.3 8 Norte 12 Norte 0 -- -- 84
2021-02-03 11:00:00 14.3 4 Nordeste 13 Norte 0 -- -- 77
2021-02-03 10:00:00 17.3 8 Norte 12 Norte 0 -- -- 32
2021-02-03 09:00:00 14.1 5 Oeste 11 Sudoeste 0 -- -- 33
2021-02-03 08:00:00 7.9 9 Oeste 10 Oeste 0 -- -- 46
2021-02-03 07:00:00 8.4 4 Oeste 10 Oeste 0 -- -- 42
2021-02-03 06:00:00 7.4 6 Oeste 11 Oeste 0 -- -- 42
2021-02-03 05:00:00 7.5 8 Oeste 10 Oeste 0 -- -- 38
2021-02-03 04:00:00 8.6 7 Oeste 13 Oeste 0 -- -- 33
2021-02-03 03:00:00 9 10 Oeste 12 Oeste 0 -- -- 39
2021-02-03 02:00:00 9.5 9 Sudoeste 10 Sudoeste 0 -- -- 40
2021-02-03 01:00:00 8.8 6 Sudoeste 8 Sudoeste 0 -- -- 42
2021-02-03 00:00:00 8.9 6 Sudoeste 12 Oeste 0 -- -- 41
2021-02-02 23:00:00 9.2 8 Oeste 10 Noroeste 0 -- -- 37
2021-02-02 22:00:00 10.6 8 Oeste 13 Noroeste 0 -- -- 36
2021-02-02 21:00:00 10.1 7 Noroeste 12 Norte 0 -- -- 36
2021-02-02 20:00:00 10.5 6 Noroeste 15 Norte 0 -- -- 37
2021-02-02 19:00:00 12.1 6 Oeste 8 Oeste 0 -- -- 40
2021-02-02 18:00:00 18 5 Norte 12 Sudeste 0 -- -- 28
2021-02-02 17:00:00 18.6 9 Sudeste 14 Sudeste 0 -- -- 34
2021-02-02 16:00:00 19.1 6 Sudeste 11 Este 0 -- -- 29
2021-02-02 15:00:00 19.5 5 Sudeste 14 Sudeste 0 -- -- 31
2021-02-02 14:00:00 19.8 6 Sudeste 13 Sudeste 0 -- -- 29
2021-02-02 13:00:00 19.1 9 Sudeste 17 Sur 0 -- -- 34
2021-02-02 12:00:00 20.2 10 Sudeste 17 Sudeste 0 -- -- 19
2021-02-02 11:00:00 18.5 13 Sudeste 19 Sudeste 0 -- -- 27
2021-02-02 10:00:00 18.1 10 Sur 14 Sur 0 -- -- 27
2021-02-02 09:00:00 16.2 8 Sur 14 Sudeste 0 -- -- 30
2021-02-02 08:00:00 12.7 9 Sudeste 14 Sur 0 -- -- 32
2021-02-02 07:00:00 13.4 12 Sudeste 15 Sudeste 0 -- -- 33
2021-02-02 06:00:00 13.9 8 Sudeste 12 Sudeste 0 -- -- 30
2021-02-02 05:00:00 12.7 6 Sudeste 13 Sudeste 0 -- -- 38
2021-02-02 04:00:00 14.2 7 Sur 13 Sudeste 0 -- -- 34
2021-02-02 03:00:00 11.5 4 Sur 12 Sudeste 0 -- -- 46
2021-02-02 02:00:00 11.7 6 Sur 10 Sur 0 -- -- 47
2021-02-02 01:00:00 10.2 5 Oeste 15 Norte 0 -- -- 56
2021-02-02 00:00:00 12.6 13 Noroeste 30 Noroeste 0 -- -- 56
2021-02-01 23:00:00 13.4 8 Oeste 24 Norte 0 -- -- 52
2021-02-01 22:00:00 13.5 12 Noroeste 29 Norte 0 -- -- 52
2021-02-01 21:00:00 12.9 6 Oeste 22 Noroeste 0 -- -- 59
2021-02-01 20:00:00 13.5 8 Noroeste 27 Noroeste 0 -- -- 55
2021-02-01 19:00:00 13.7 13 Noroeste 28 Noroeste 0 -- -- 52
2021-02-01 18:00:00 14.5 15 Noroeste 32 Noroeste 0 -- -- 48
2021-02-01 17:00:00 15.4 15 Noroeste 26 Noroeste 0 -- -- 54
2021-02-01 16:00:00 16 16 Norte 21 Norte 0 -- -- 54
2021-02-01 15:00:00 19.6 9 Sudeste 24 Sudeste 0 -- -- 33
2021-02-01 14:00:00 19.9 12 Sudeste 24 Este 0 -- -- 33
2021-02-01 13:00:00 20.8 14 Sudeste 24 Este 0 -- -- 28
2021-02-01 12:00:00 19.9 12 Sudeste 21 Sudeste 0 -- -- 32
2021-02-01 11:00:00 19.7 13 Este 27 Este 0 -- -- 34
2021-02-01 10:00:00 18.1 6 Norte 29 Este 0 -- -- 40
2021-02-01 09:00:00 18 9 Este 43 Nordeste 0 -- -- 38
2021-02-01 08:00:00 16.6 21 Este 39 Nordeste 0 -- -- 38
2021-02-01 07:00:00 16 17 Nordeste 31 Nordeste 0 -- -- 40
2021-02-01 06:00:00 14.5 8 Norte 16 Norte 0 -- -- 45
2021-02-01 05:00:00 12.8 6 Sur 16 Sudeste 0 -- -- 54
2021-02-01 04:00:00 14.2 14 Este 28 Nordeste 0 -- -- 54
2021-02-01 03:00:00 17.1 13 Nordeste 25 Nordeste 0 -- -- 37
2021-02-01 02:00:00 11.8 6 Noroeste 12 Nordeste 0 -- -- 46
2021-02-01 01:00:00 13.3 5 Sudeste 18 Este 0 -- -- 43
2021-02-01 00:00:00 15.6 7 Este 15 Este 0 -- -- 31
2021-01-31 23:00:00 14 9 Noroeste 18 Norte 0 -- -- 45
2021-01-31 22:00:00 14.2 6 Sur 17 Sur 0 -- -- 42
2021-01-31 21:00:00 13.1 7 Sudoeste 19 Norte 0 -- -- 44
2021-01-31 20:00:00 12.6 14 Noroeste 21 Norte 0 -- -- 53
2021-01-31 19:00:00 12.3 13 Noroeste 16 Noroeste 0 -- -- 53
2021-01-31 18:00:00 15.7 11 Noroeste 33 Nordeste 0 -- -- 32
2021-01-31 17:00:00 16.9 10 Nordeste 35 Nordeste 0 -- -- 28
2021-01-31 16:00:00 17.6 11 Noroeste 22 Noroeste 0 -- -- 26
2021-01-31 15:00:00 18.7 6 Nordeste 21 Este 0 -- -- 25
2021-01-31 14:00:00 20 9 Nordeste 31 Este 0 -- -- 47
2021-01-31 13:00:00 20.8 14 Este 31 Este 0 -- -- 31
2021-01-31 12:00:00 20.7 18 Nordeste 36 Este 0 -- -- 30
2021-01-31 11:00:00 18.8 29 Este 42 Este 0 -- -- 12
2021-01-31 10:00:00 18.3 22 Este 35 Este 0 -- -- 19
2021-01-31 09:00:00 15.9 5 Nordeste 28 Nordeste 0 -- -- 45
2021-01-31 08:00:00 15.1 11 Nordeste 23 Nordeste 0 -- -- 42
2021-01-31 07:00:00 11.8 6 Noroeste 17 Noroeste 0 -- -- 77
2021-01-31 06:00:00 12 9 Noroeste 26 Nordeste 0 -- -- 72
2021-01-31 05:00:00 12.3 9 Norte 26 Nordeste 0 -- -- 73
2021-01-31 04:00:00 15.5 14 Nordeste 27 Nordeste 0 -- -- 44
2021-01-31 03:00:00 11.8 10 Norte 26 Nordeste 0 -- -- 66
2021-01-31 02:00:00 15.7 15 Este 26 Este 0 -- -- 22
2021-01-31 01:00:00 16 13 Nordeste 21 Nordeste 0 -- -- 25
2021-01-31 00:00:00 13.2 9 Norte 37 Este 0 -- -- 46
2021-01-30 23:00:00 16.8 20 Este 39 Este 0 -- -- 19
2021-01-30 22:00:00 16.4 12 Nordeste 23 Nordeste 0 -- -- 18
2021-01-30 21:00:00 16.1 2 Nordeste 13 Norte 0 -- -- 20
2021-01-30 20:00:00 14.7 9 Norte 14 Norte 0 -- -- 23
2021-01-30 19:00:00 13.1 10 Noroeste 13 Noroeste 0 -- -- 30
2021-01-30 18:00:00 17.6 7 Noroeste 15 Noroeste 0 -- -- 29
2021-01-30 17:00:00 19.6 9 Noroeste 16 Noroeste 0 -- -- 21
2021-01-30 16:00:00 20.4 9 Norte 18 Noroeste 0 -- -- 22
2021-01-30 15:00:00 21.7 8 Nordeste 19 Nordeste 0 -- -- 19
2021-01-30 14:00:00 21.6 7 Noroeste 19 Nordeste 0 -- -- 19
2021-01-30 13:00:00 20.3 10 Nordeste 19 Nordeste 0 -- -- 17
2021-01-30 12:00:00 20.3 6 Nordeste 15 Noroeste 0 -- -- 21
2021-01-30 11:00:00 19.5 6 Noroeste 14 Noroeste 0 -- -- 24
2021-01-30 10:00:00 18.1 6 Noroeste 15 Noroeste 0 -- -- 27
2021-01-30 09:00:00 14.5 9 Noroeste 15 Noroeste 0 -- -- 37
2021-01-30 08:00:00 11.9 11 Oeste 16 Noroeste 0 -- -- 29
2021-01-30 07:00:00 11.5 10 Noroeste 15 Noroeste 0 -- -- 31
2021-01-30 06:00:00 10.5 10 Noroeste 13 Noroeste 0 -- -- 35
2021-01-30 05:00:00 10.3 5 Oeste 9 Oeste 0 -- -- 38
2021-01-30 04:00:00 9.8 6 Oeste 12 Oeste 0 -- -- 37
2021-01-30 03:00:00 9.4 9 Oeste 11 Oeste 0 -- -- 39
2021-01-30 02:00:00 8.4 7 Oeste 11 Oeste 0 -- -- 45
2021-01-30 01:00:00 9 6 Oeste 18 Noroeste 0 -- -- 42
2021-01-30 00:00:00 12.4 14 Noroeste 23 Noroeste 0 -- -- 32